Wind_Speed
13 14 14 14 13 13 13 12 11 11 9 7 4 3 2 1 1 1 1 2 3 3 4 4 5 5 6 6 5 5 6 6 6 7 7 7 7 8 8 8 9 9 9
12 13 13 13 13 12 13 12 11 11 10 8 5 3 3 2 2 2 2 3 3 4 4 5 5 5 6 6 6 6 7 7 8 8 8 9 9 10 10 11 11 11 11
12 12 12 13 13 12 13 12 12 11 10 8 7 5 3 3 3 3 3 4 4 5 5 5 5 6 6 7 7 7 7 7 8 9 9 9 10 11 11 12 12 12 12
11 11 11 12 12 12 13 12 12 11 10 9 8 6 5 5 4 4 4 4 4 5 5 5 6 6 6 7 7 8 9 9 9 10 10 11 11 12 13 13 13 13 14
11 11 11 12 12 12 12 12 12 12 10 10 8 6 5 5 5 5 4 4 4 4 5 5 6 6 6 7 7 8 9 10 10 10 11 11 12 13 14 14 14 15 15
11 12 12 12 12 12 12 12 12 11 10 9 8 7 6 6 5 5 5 5 5 5 6 6 7 7 8 8 9 9 10 10 11 11 12 13 13 14 14 15 15 16 16
12 12 12 13 12 12 12 12 11 10 9 8 7 7 6 6 6 6 6 5 6 6 6 6 7 8 9 9 9 10 10 11 12 12 13 13 14 15 15 16 16 17 17
12 12 13 13 13 13 13 12 11 9 9 8 7 7 7 7 7 7 7 7 7 7 7 7 8 8 8 9 10 11 11 12 12 13 13 14 14 15 16 17 18 18 18
12 13 13 13 14 14 14 13 11 10 9 9 8 8 8 8 8 7 7 8 8 8 8 8 8 9 9 10 11 12 13 13 14 14 14 15 15 16 17 17 18 19 19
12 13 13 13 14 14 13 12 12 11 10 9 8 9 9 9 9 9 9 9 9 8 9 9 10 10 11 11 12 13 14 14 15 15 16 16 17 17 18 18 18 18 19
13 13 14 14 14 13 12 12 11 10 10 9 9 9 10 9 8 9 10 10 10 11 11 11 11 12 12 13 13 14 15 15 15 16 16 17 18 18 18 18 18 19 19
14 14 14 14 14 13 12 12 10 10 10 9 10 10 10 9 9 10 10 11 11 12 12 13 13 13 13 14 15 15 16 16 16 16 17 18 18 18 19 19 19 20 20
14 15 15 14 13 12 12 12 10 10 10 10 10 11 11 11 11 11 11 12 13 14 14 15 14 15 15 15 15 15 15 16 17 17 17 18 18 19 19 20 20 21 21
14 15 14 14 13 12 13 12 11 11 11 10 10 11 11 11 12 12 12 13 13 14 15 15 16 16 16 16 16 16 16 16 17 18 18 18 19 19 20 20 20 21 22
15 15 15 15 14 13 14 14 12 11 11 11 11 12 12 13 13 14 14 14 14 14 15 16 16 17 17 17 18 18 18 18 18 19 19 19 19 20 21 21 21 22 23
15 15 15 16 15 15 15 15 14 13 12 12 12 13 14 15 15 15 15 16 16 16 16 16 16 16 17 18 19 19 20 20 19 20 20 20 20 21 21 22 23 23 24
17 17 17 17 17 16 16 16 16 15 14 13 14 14 15 16 17 17 17 17 17 17 17 17 18 18 18 19 19 20 19 20 20 21 21 21 22 23 23 23 24 24 25
19 19 18 18 18 18 18 18 17 16 16 15 15 16 17 18 18 18 19 19 18 19 19 18 18 18 19 20 20 21 21 20 20 20 21 22 22 23 23 24 25 25 26
20 20 19 19 19 19 19 18 18 18 17 17 18 19 19 19 19 20 20 20 20 20 20 20 19 19 20 20 20 21 21 21 21 22 22 23 23 24 24 25 26 27 28
22 22 21 20 20 20 20 20 20 20 19 20 20 20 20 20 21 21 21 21 20 20 21 21 21 21 21 21 21 21 21 21 22 23 23 23 24 24 25 26 27 28 29
25 25 24 23 22 22 22 21 21 21 22 22 22 22 21 22 21 21 22 22 22 22 22 23 23 22 23 23 22 23 23 23 23 24 24 25 26 26 27 28 29 29 30
27 27 26 25 24 24 24 23 23 23 23 23 23 22 22 22 22 22 23 23 23 23 24 24 24 24 25 24 24 25 26 25 25 26 26 27 28 28 29 29 30 30 30
29 29 29 28 27 26 26 25 24 24 23 23 23 23 23 24 23 24 24 24 24 24 24 25 25 25 25 25 26 27 27 27 27 28 28 29 29 30 30 31 31 32 32
30 31 31 30 30 29 29 28 28 26 26 26 25 25 25 25 25 25 25 25 25 25 25 26 26 26 26 27 28 28 28 28 29 30 30 30 31 32 32 32 33 33 33
32 32 32 32 32 30 30 30 29 29 28 28 28 28 28 27 27 27 27 27 27 27 27 27 27 27 28 28 29 29 29 30 30 31 31 32 33 33 33 34 34 34 34
32 32 32 32 32 32 32 31 31 31 31 31 30 30 29 28 28 28 28 28 29 29 29 28 28 28 29 29 30 31 31 32 32 32 33 33 34 34 34 35 35 35 36
Wind_Direction
360 359 1 2 1 358 360 0 360 359 359 357 2 12 18 0 321 287 263 253 238 234 218 216 221 223 226 230 237 233 233 233 242 249 252 255 260 263 267 272 276 278 280
354 353 354 355 355 354 354 354 353 353 354 354 354 348 347 343 328 300 277 263 250 240 233 226 225 232 242 244 242 240 244 246 249 253 256 259 262 266 270 274 276 278 279
354 354 354 352 351 350 349 351 346 345 345 343 340 341 328 331 320 301 289 275 256 248 244 238 235 243 250 249 246 246 251 253 255 257 260 263 268 273 276 277 278 278 279
349 349 348 347 346 344 345 345 343 342 342 340 336 330 321 314 311 306 299 283 263 254 258 250 240 249 255 249 249 253 256 258 261 261 263 265 269 273 278 281 280 279 281
345 344 344 344 344 342 339 338 339 337 337 336 332 327 326 324 321 311 298 280 267 262 263 255 252 257 255 252 255 258 260 262 263 265 265 270 273 276 279 280 282 282 282
342 342 341 340 340 340 338 336 333 333 331 331 329 322 320 318 315 312 304 286 274 270 267 258 262 260 258 261 263 265 263 265 267 268 271 274 275 277 279 281 282 282 284
338 340 341 339 338 336 334 332 329 326 321 320 321 317 311 309 305 300 295 290 281 276 275 270 271 266 262 264 267 268 269 268 270 274 275 276 276 279 280 282 283 284 286
334 337 337 337 337 335 332 329 326 324 319 314 313 313 305 302 300 295 290 287 283 280 278 277 279 275 269 268 271 272 272 271 274 276 277 277 278 280 283 282 283 283 284
326 331 333 333 333 332 331 330 327 324 320 317 311 308 304 297 295 293 289 285 281 278 277 277 277 277 274 274 276 276 275 274 274 274 276 277 279 281 283 283 283 283 283
319 325 330 329 329 330 330 330 326 321 315 316 314 311 307 302 293 290 289 288 286 281 279 280 279 278 281 282 283 280 277 277 278 276 277 278 279 281 282 284 284 285 283
311 318 323 324 324 325 325 324 323 322 316 313 313 311 310 307 302 293 290 289 288 286 281 278 279 280 282 285 287 285 281 279 279 278 278 278 279 280 281 283 284 285 286
302 309 315 319 319 321 325 323 320 320 317 312 311 308 306 305 302 301 292 289 290 286 282 281 282 282 284 286 289 287 284 280 281 281 280 281 281 281 282 284 286 287 288
294 301 308 314 316 316 322 322 318 316 312 311 311 311 309 305 301 299 296 291 290 289 285 284 283 283 285 286 287 288 287 283 281 284 284 283 284 285 284 285 286 287 288
287 294 303 310 312 312 314 318 317 315 310 308 310 313 314 312 308 302 298 296 295 293 288 285 283 282 284 284 285 286 286 285 283 284 286 285 286 286 285 286 288 288 290
282 287 295 302 306 308 310 312 314 311 306 304 308 312 314 313 310 305 300 297 296 295 291 286 285 285 284 284 284 285 284 286 286 286 285 285 286 286 287 288 289 288 289
276 283 291 297 300 302 305 306 309 308 304 304 305 307 308 309 307 303 298 296 294 295 296 292 290 290 287 286 285 285 283 283 286 286 285 285 285 286 288 288 289 288 289
270 278 287 292 293 297 299 300 303 304 302 302 304 304 306 306 303 302 299 296 295 296 297 296 293 292 290 289 289 288 287 286 287 287 286 286 286 287 286 288 288 289 289
267 273 280 287 291 294 294 297 296 297 297 298 302 302 303 303 301 299 298 297 296 297 297 296 295 296 295 292 291 289 287 286 286 287 288 288 289 289 288 290 290 289 290
266 270 275 280 285 289 289 293 293 291 295 296 299 302 301 300 300 299 296 294 294 294 295 295 296 297 297 295 293 291 288 287 288 290 291 290 290 290 290 290 290 290 291
264 267 271 274 279 283 287 288 289 291 293 295 297 299 298 299 299 298 297 293 291 291 291 292 293 295 296 295 294 295 293 290 289 290 291 292 293 293 293 293 293 293 293
261 263 266 269 274 278 283 285 286 289 291 294 295 297 295 296 297 296 297 294 290 289 290 291 291 293 294 295 294 294 293 292 291 291 291 291 291 292 292 293 294 294 293
258 261 265 268 272 275 280 283 285 287 290 293 294 295 295 295 295 296 295 294 292 289 289 290 291 291 291 293 294 294 293 292 291 291 290 289 290 291 292 293 293 292 292
256 258 261 266 270 274 279 282 285 287 290 294 295 295 294 294 294 295 294 293 292 291 290 292 292 292 291 290 290 291 291 292 292 293 292 291 292 294 294 294 293 293 292
255 258 260 263 267 271 275 278 282 286 287 289 291 293 294 293 293 292 292 291 291 290 291 293 293 293 291 290 289 289 290 291 292 293 294 294 295 296 296 296 295 295 294
254 257 258 261 264 269 272 275 278 282 283 285 288 290 291 292 292 292 291 291 290 289 289 291 292 292 292 290 288 289 290 292 293 294 295 295 296 296 296 296 295 294 294
257 260 261 262 264 267 269 273 276 280 282 283 285 287 288 289 290 290 291 290 290 289 289 289 290 290 290 290 290 290 290 291 292 293 293 295 296 296 296 297 296 295 294
Height
5929 5927 5925 5922 5920 5918 5915 5913 5912 5910 5908 5907 5905 5905 5904 5903 5903 5903 5903 5903 5903 5903 5904 5904 5904 5905 5905 5905 5906 5906 5907 5907 5908 5908 5908 5908 5908 5908 5908 5907 5907 5907 5907
5929 5927 5925 5923 5920 5918 5916 5913 5912 5910 5908 5907 5906 5905 5904 5903 5903 5902 5902 5902 5902 5902 5903 5903 5903 5904 5904 5904 5905 5905 5905 5906 5906 5906 5906 5906 5907 5906 5906 5905 5905 5905 5904
5929 5927 5925 5923 5920 5918 5916 5913 5911 5910 5908 5907 5905 5904 5904 5903 5902 5902 5902 5901 5902 5902 5902 5902 5902 5902 5903 5903 5903 5903 5904 5904 5904 5904 5904 5904 5904 5904 5904 5903 5903 5902 5902
5929 5927 5924 5922 5920 5918 5916 5914 5911 5910 5908 5906 5905 5904 5903 5902 5901 5901 5901 5901 5901 5900 5900 5900 5901 5901 5901 5901 5901 5902 5902 5902 5902 5902 5902 5902 5902 5901 5901 5901 5900 5899 5899
5928 5926 5924 5922 5920 5917 5915 5913 5911 5909 5907 5906 5904 5903 5902 5901 5901 5900 5900 5900 5899 5899 5899 5899 5899 5899 5899 5900 5900 5900 5900 5900 5900 5900 5899 5899 5899 5899 5898 5898 5897 5896 5896
5928 5925 5923 5921 5919 5916 5914 5912 5910 5908 5906 5905 5903 5902 5902 5901 5900 5899 5899 5899 5898 5898 5898 5897 5897 5897 5898 5898 5898 5898 5897 5897 5897 5897 5897 5896 5896 5896 5895 5894 5894 5893 5892
5926 5924 5922 5920 5918 5915 5913 5911 5908 5906 5905 5904 5902 5901 5900 5900 5899 5898 5898 5897 5897 5897 5896 5896 5896 5895 5895 5895 5895 5895 5895 5895 5895 5894 5894 5893 5893 5892 5892 5891 5890 5889 5888
5925 5923 5921 5918 5916 5914 5911 5909 5907 5905 5904 5903 5901 5900 5899 5898 5898 5897 5896 5896 5896 5895 5895 5894 5894 5893 5893 5893 5893 5893 5892 5892 5892 5891 5891 5890 5889 5889 5888 5887 5886 5885 5884
5923 5921 5919 5917 5914 5912 5909 5907 5905 5904 5903 5901 5900 5899 5898 5897 5896 5895 5894 5894 5894 5893 5893 5893 5892 5891 5891 5891 5890 5890 5889 5889 5888 5888 5887 5886 5886 5885 5884 5883 5882 5881 5879
5921 5919 5916 5914 5912 5910 5907 5905 5904 5902 5901 5900 5898 5897 5896 5895 5894 5893 5893 5892 5892 5891 5891 5890 5890 5889 5889 5888 5887 5887 5886 5885 5884 5884 5883 5882 5881 5880 5879 5878 5877 5875 5875
5919 5917 5914 5912 5910 5908 5905 5903 5902 5900 5899 5897 5896 5895 5894 5893 5892 5891 5890 5890 5890 5889 5888 5887 5887 5886 5885 5885 5884 5883 5882 5881 5880 5880 5879 5878 5877 5876 5875 5873 5872 5871 5869
5916 5914 5912 5910 5908 5906 5903 5901 5900 5898 5897 5896 5894 5893 5892 5891 5890 5889 5888 5887 5887 5886 5885 5884 5883 5883 5882 5881 5880 5879 5878 5877 5876 5875 5874 5873 5872 5871 5870 5869 5867 5866 5864
5913 5912 5910 5908 5905 5903 5902 5900 5898 5896 5895 5894 5893 5892 5891 5889 5888 5887 5886 5885 5884 5883 5882 5881 5880 5879 5878 5877 5876 5875 5874 5873 5872 5871 5870 5869 5868 5867 5865 5864 5863 5861 5859
5910 5909 5907 5906 5904 5902 5900 5898 5896 5894 5893 5892 5891 5890 5889 5887 5886 5884 5883 5882 5881 5880 5878 5877 5876 5875 5874 5873 5872 5871 5870 5869 5868 5867 5865 5864 5863 5861 5860 5859 5857 5856 5854
5907 5906 5905 5903 5902 5900 5898 5896 5894 5892 5891 5890 5889 5888 5886 5885 5883 5882 5880 5879 5878 5876 5875 5873 5872 5871 5870 5869 5868 5866 5865 5864 5863 5861 5860 5859 5858 5856 5855 5853 5852 5850 5848
5903 5903 5902 5900 5899 5897 5895 5894 5892 5890 5889 5888 5886 5885 5884 5882 5881 5879 5877 5876 5874 5873 5871 5869 5868 5866 5865 5864 5863 5861 5860 5859 5857 5856 5855 5854 5852 5851 5849 5848 5846 5844 5842
5899 5899 5898 5897 5895 5894 5892 5891 5889 5887 5886 5885 5883 5882 5881 5879 5877 5875 5874 5872 5871 5869 5867 5865 5864 5862 5860 5859 5858 5856 5854 5853 5852 5851 5849 5848 5847 5845 5843 5841 5839 5837 5835
5894 5894 5893 5893 5891 5890 5888 5887 5885 5883 5882 5881 5879 5878 5876 5874 5873 5871 5869 5868 5866 5865 5863 5861 5859 5857 5856 5854 5852 5850 5849 5848 5846 5845 5844 5842 5840 5839 5837 5835 5833 5831 5829
5889 5889 5889 5888 5887 5885 5884 5882 5881 5879 5878 5876 5875 5873 5871 5869 5867 5866 5864 5863 5861 5860 5858 5857 5855 5853 5851 5849 5847 5845 5843 5842 5841 5839 5838 5836 5834 5832 5830 5828 5826 5824 5822
5883 5883 5883 5883 5882 5880 5879 5878 5876 5875 5874 5872 5869 5868 5866 5864 5862 5860 5859 5857 5856 5855 5853 5852 5850 5848 5846 5844 5842 5840 5838 5836 5835 5833 5831 5830 5828 5826 5824 5822 5819 5817 5814
5876 5877 5877 5877 5876 5875 5874 5873 5871 5870 5868 5866 5864 5862 5860 5859 5857 5855 5853 5852 5851 5849 5848 5846 5844 5842 5841 5839 5837 5835 5833 5831 5829 5827 5825 5823 5821 5819 5817 5814 5812 5809 5806
5869 5870 5870 5870 5870 5869 5867 5866 5865 5864 5862 5860 5858 5857 5855 5853 5851 5849 5848 5846 5845 5843 5842 5840 5838 5836 5834 5833 5831 5829 5827 5825 5823 5821 5819 5816 5814 5812 5809 5806 5803 5801 5798
5861 5862 5863 5863 5863 5862 5862 5860 5859 5858 5857 5855 5853 5851 5849 5847 5845 5844 5842 5840 5839 5837 5836 5834 5832 5829 5827 5826 5824 5822 5820 5818 5816 5814 5811 5809 5806 5804 5801 5798 5795 5792 5789
5853 5853 5854 5854 5855 5855 5854 5854 5853 5852 5850 5849 5847 5845 5843 5841 5839 5838 5836 5834 5833 5831 5829 5827 5825 5823 5821 5819 5817 5815 5813 5810 5808 5806 5803 5800 5798 5795 5792 5789 5786 5783 5780
5844 5845 5845 5846 5846 5846 5846 5846 5845 5844 5843 5842 5841 5839 5837 5835 5833 5831 5829 5827 5826 5824 5822 5820 5818 5816 5814 5811 5809 5807 5805 5802 5800 5797 5794 5792 5789 5786 5783 5779 5776 5773 5770
5835 5836 5837 5837 5837 5837 5837 5837 5837 5836 5835 5834 5833 5831 5829 5827 5826 5824 5822 5820 5818 5816 5814 5812 5810 5808 5806 5804 5801 5799 5797 5794 5791 5789 5786 5783 5779 5776 5773 5770 5767 5763 5760